Location: ????????
(56.0167°N, 38.0333°E)
Time: 06:39:30
(UTC+00:00)

USA 59 Rocket - Pass Details

Date: 19 May 2025
Orbit: 373 x 1696 km, 63.3° (Epoch: 15 June)

Event Time Altitude Azimuth Distance (km) Brightness Sun altitude
Exits shadow 20:24:15 25° 158° (SSE) 846 0.2 -13.0°
Maximum altitude 20:24:59 28° 131° (SE) 766 0.1 -13.0°
Drops below altitude 10° 20:27:36 10° 69° (ENE) 1,392 2.0 -13.1°
Sets 20:29:42 0° 57° (ENE) 2,255 3.2 -13.1°
